FALCON 9 R/B, 57046

Orbit data source: Space-Track

FALCON 9 R/B, 57046 is space debris in HEO originally from a launch on Sun, 18 Jun 2023 UTC launched from the Air Force Eastern Test Range (AFETR). Debris objects in space refer to the collection of defunct objects orbiting the Earth. Examples of debris include non-operational satellites, rocket bodies, and fragments generated from explosions, collisions, or faulty payload assembly.

Loading next visibility...
Identifier
57046, 2023-086B
Orbit
HEO
Country
Flag of USUS
Related business
Manufacturer
SpaceX
Mission
Spacecraft
Bus & Motor
F9ST2, Unknown motor
Mass
~4,000 kg wet, ~4,000 kg dry
Launch date (UTC)
2023-06-18 (3 years ago)
Launch vehicle
Unknown
Launch site
Air Force Eastern Test Range (AFETR)
Object type
Payload
Rocket body
Debris
Shape & HBR
Cyl, 7.8 m
Radar Cross Section
39.980 m², Large (>1 m²)

Expand to show TLE details & history
Last TLE update: 1 day ago

TLE from 1 day ago
0 FALCON 9 R/B
1 57046U 23086B   26207.76048951 -.00000210  00000-0 -16599-1 0  9994
2 57046  26.4209 203.7755 7827093 193.0295 117.1943  1.46550261 16228
Epoch: 2026-07-26T18:15Z
TLE epoch observation values (Epoch: 2026-07-26T18:15:06.293Z)
Latitude
-0.00039°
Longitude
-14.53785°
Altitude
46,972.901 km
Speed
1.664 km/s
True Right ascension
13h 34m 46s
True Declination
0° 00' 01"
Sunlit
Object was in daylight at epoch
Visualization orbit readout
Latitude
Unknown
Longitude
Unknown
Altitude
Unknown
Speed
Unknown
Apparent Right ascension
Unknown
Apparent Declination
Unknown
Sunlit
N/A
Visualization observer readout
Local Sidereal Time
08:34:32
Azimuth
Unknown
Elevation
Unknown
Doppler factor
Unknown
Orbital elements
Apogee altitude
51,994.629 km
Perigee altitude
736.797 km
Semi-major axis
32,743.85 km
Eccentricity
0.78271
Inclination
26.4209°
RAAN
203.7755°
Arg. of periapsis
193.0295°
True anomaly
166.95217°
Mean anomaly
117.1943°
Eccentric anomaly
143.72679°
Mean motion
0.36631 °/min
Orbital period
982.77 mins
BSTAR
-0.016599
Loading maneuver chart data...
Computing Atmospheric mass density...
Loading historical data...
Loading historical data...
Loading historical data...
Loading historical data...
Loading historical data...
Loading historical data...
Loading historical data...
Other satellites on launch #86 in the year 2023 (2023-06-18 UTC)

Documentation

Showing up to 5 results
|